TITAN 3C TRANSTAGE DEB, 28835

Orbit data source: Space-Track

TITAN 3C TRANSTAGE DEB, 28835 is space debris in HEO originally from a launch on Tue, 21 Dec 1965 UTC launched from the Air Force Eastern Test Range (AFETR). Debris objects in space refer to the collection of defunct objects orbiting the Earth. Examples of debris include non-operational satellites, rocket bodies, and fragments generated from explosions, collisions, or faulty payload assembly.

Loading next visibility...
Identifier
28835, 1965-108CM
Orbit
HEO
Country
Flag of USUS
Related business
Manufacturer
Unknown
Mission
Spacecraft
Bus & Motor
Unknown
Mass
Unknown
Launch date (UTC)
1965-12-21 (60 years ago)
Launch vehicle
Unknown
Launch site
Air Force Eastern Test Range (AFETR)
Object type
Payload
Rocket body
Debris
Shape & HBR
Unknown shape, 0.1 m
Radar Cross Section
Small (<0.1 m²)

Expand to show TLE details & history
Last TLE update: 2 months ago

TLE from 2 months ago
0 TITAN 3C TRANSTAGE DEB
1 28835U 65108CM  26075.78559464  .00000070  00000-0  22560-2 0  9998
2 28835  27.4553 269.7049 6736644  73.6869   4.2320  2.75550414131645
Epoch: 2026-03-16T18:51Z
TLE epoch observation values (Epoch: 2026-03-16T18:51:15.376Z)
Latitude
26.87614°
Longitude
-83.57372°
Altitude
979.004 km
Speed
9.48 km/s
True Right ascension
00h 54m 27s
True Declination
26° 44' 31"
Sunlit
Object was in daylight at epoch
Visualization orbit readout
Latitude
Unknown
Longitude
Unknown
Altitude
Unknown
Speed
Unknown
Apparent Right ascension
Unknown
Apparent Declination
Unknown
Sunlit
N/A
Visualization observer readout
Local Sidereal Time
13:29:23
Azimuth
Unknown
Elevation
Unknown
Doppler factor
Unknown
Orbital elements
Apogee altitude
29,597.32 km
Perigee altitude
636.455 km
Semi-major axis
21,495.024 km
Eccentricity
0.67366
Inclination
27.4553°
RAAN
269.7049°
Arg. of periapsis
73.6869°
True anomaly
28.40128°
Mean anomaly
4.232°
Eccentric anomaly
12.75148°
Mean motion
0.68871 °/min
Orbital period
522.72 mins
BSTAR
0.002256
Loading maneuver chart data...
Computing Atmospheric mass density...

Documentation

Showing up to 5 results
|